Location: Smithsonian NASM Public Observatory
(38.8879°N, 77.0185°W)
Time: 02:49:36
(UTC-04:00)

Daily predictions for brighter satellites

Satellite Brightness Start Highest point End
(mag) Time Altitude Azimuth Time Altitude Azimuth Time Altitude Azimuth
USA 234 4.0 00:06:31 36° SW 00:06:36 36° SW 00:12:33 10° WNW
Cosmos 1943 Rocket 3.5 00:04:15 10° NW 00:08:50 27° WSW 00:09:02 27° WSW
Terra 3.6 00:10:21 22° W 00:10:24 22° W 00:14:06 10° NW
Cosmos 1707 4.2 00:12:54 37° NNW 00:12:54 37° NNW 00:15:28 10° N
Cosmos 1656 Rocket 4.2 00:14:30 10° NW 00:19:41 47° W 00:19:41 47° W
Cosmos 1486 Rocket 4.5 00:22:41 51° NE 00:22:41 51° NE 00:26:48 10° NNE
Cosmos 1408 Rocket 4.4 00:25:49 49° N 00:25:49 49° N 00:29:07 10° N
Lacrosse 5 4.1 00:21:54 10° NNW 00:25:39 20° NNE 00:29:12 11° ENE
ALOS 2 3.5 00:27:55 45° NNE 00:27:55 45° NNE 00:31:09 10° N
Meteor 1-24 Rocket 3.8 00:29:45 80° WSW 00:29:55 81° W 00:35:52 10° N
Cosmos 1763 Rocket 4.3 00:30:04 10° N 00:35:02 42° ENE 00:35:02 42° ENE
Cosmos 1417 Rocket 4.4 00:30:56 10° N 00:37:03 73° W 00:37:13 73° WSW
Cosmos 1818 3.7 00:31:57 10° NNW 00:37:07 70° NNE 00:37:07 70° NNE
CZ-2C R/B 4.0 00:34:50 10° NE 00:38:49 29° E 00:38:49 29° E
Cosmos 1553 Rocket 3.9 00:35:42 10° N 00:42:05 89° W 00:42:23 83° S
CZ-4B R/B 3.7 00:44:24 27° N 00:44:24 27° N 00:46:11 10° N
In-Cosmos 22 4.4 00:51:05 62° ENE 00:51:05 62° ENE 00:56:10 10° NNE
Cosmos 2344 3.5 00:56:45 64° S 00:57:59 76° ESE 01:06:31 10° NE
H-2A R/B 4.2 00:56:39 10° N 00:58:50 28° NNW 00:58:50 28° NNW
CENTAUR R/B 3.2 01:03:42 40° E 01:03:42 40° E 01:09:04 10° NE
Cosmos 2266 Rocket 3.9 01:05:52 82° SE 01:06:05 84° E 01:12:32 10° N
Cosmos 2315 Rocket 4.4 01:00:07 10° N 01:06:15 50° E 01:06:49 49° E
NOSS 3-3 (A) 4.4 00:59:33 10° NW 01:06:58 63° WSW 01:07:31 61° SW
NOSS 3-3 (C) 4.4 00:59:39 10° NW 01:07:04 63° WSW 01:07:38 62° SW
Cosmos 2369 3.8 01:01:48 10° NNW 01:06:47 66° WNW 01:06:47 66° WNW
Cosmos 1354 Rocket 4.2 01:10:42 68° NNE 01:10:42 68° NNE 01:15:19 10° NNE
S3M 4.3 01:04:02 10° NNW 01:10:02 52° W 01:10:04 52° W
Cosmos 1867 4.0 01:11:28 57° WNW 01:11:30 57° NW 01:16:54 10° NNE
Meteor 1-21 Rocket 4.2 01:12:13 81° N 01:12:13 81° N 01:17:36 10° N
NOSS 3-2 (C) 4.4 01:11:29 32° W 01:13:43 43° NW 01:20:04 10° NNE
Cosmos 1503 Rocket 4.2 01:15:53 69° N 01:15:53 69° N 01:20:35 10° NNE
Cosmos 841 Rocket 3.8 01:11:07 10° NNW 01:15:38 66° NNW 01:15:38 66° NNW
Meteor 2-20 4.4 01:17:37 74° W 01:17:43 74° W 01:23:55 10° N
ISS 0.3 01:21:26 10° N 01:22:18 11° NNE 01:23:09 10° NNE
Cosmos 1980 Rocket 3.3 01:20:31 10° N 01:25:45 38° ENE 01:27:02 33° E
ASTEX 1 4.4 01:26:21 10° NNE 01:30:25 38° ENE 01:30:25 38° ENE
CZ-4C R/B 4.0 01:30:35 18° W 01:33:17 26° NW 01:38:17 10° NNE
Meteor 2-2 Rocket 4.3 01:28:55 10° NNW 01:34:22 73° WNW 01:34:22 73° WNW
Cosmos 724 4.5 01:35:20 60° WNW 01:35:38 61° WNW 01:41:27 10° NNE
CZ-2C R/B 3.3 01:40:06 68° E 01:40:15 69° ENE 01:45:57 10° N
Lacrosse 5 rocket 3.8 01:42:00 10° NNW 01:45:24 22° NE 01:48:54 10° E
Cosmos 1697 Rocket 2.6 01:39:46 10° NNW 01:45:14 83° NNW 01:45:14 83° NNW
Cosmos 2082 Rocket 2.8 01:45:38 46° WNW 01:45:59 47° WNW 01:51:26 10° NNE
Cosmos 1833 Rocket 3.0 01:50:36 55° WNW 01:50:45 55° WNW 01:56:18 10° NNE
ATLAS 5 CENTAUR R/B 4.1 01:55:46 13° E 01:55:46 13° E 01:57:32 10° ENE
Cosmos 2058 4.0 01:58:15 44° NNE 01:58:15 44° NNE 02:01:11 10° N
Cosmos 1726 4.0 01:57:26 10° N 01:59:42 28° NE 01:59:42 28° NE
Cosmos 1805 Rocket 4.2 02:02:19 54° NNE 02:02:19 54° NNE 02:05:46 10° N
Cosmos 1633 Rocket 3.7 02:08:56 51° NE 02:08:56 51° NE 02:12:33 10° NNE
Cosmos 1656 4.4 02:03:16 10° NW 02:07:36 40° WNW 02:07:36 40° WNW
Lacrosse 5 2.1 02:04:08 10° NW 02:08:18 61° NW 02:08:18 61° NW
Cosmos 2242 Rocket 4.3 02:08:59 10° N 02:12:53 49° ENE 02:12:53 49° ENE
Cosmos 371 Rocket 3.9 02:08:41 10° N 02:13:24 49° ENE 02:13:50 48° E
Cosmos 2151 4.4 02:16:00 31° NW 02:16:00 31° NW 02:18:52 10° N
Cosmos 540 Rocket 3.6 02:09:58 10° NNW 02:14:31 64° WNW 02:14:31 64° WNW
Cosmos 1707 Rocket 4.2 02:12:48 10° N 02:16:06 51° NNW 02:16:06 51° NNW
Cosmos 2360 4.3 02:11:55 10° NNW 02:17:38 70° ENE 02:18:43 56° ESE
Cosmos 1666 Rocket 4.1 02:19:35 56° N 02:19:35 56° N 02:23:03 10° N
CZ-2C R/B 3.7 02:14:58 10° N 02:19:52 33° WNW 02:20:21 33° WNW
Cosmos 1626 4.3 02:21:49 20° E 02:21:49 20° E 02:24:17 10° NE
USA 215 3.5 02:16:58 10° NE 02:23:17 50° SE 02:24:05 48° SSE
Cosmos 1470 Rocket 4.2 02:29:39 48° E 02:29:39 48° E 02:33:47 10° NNE
SL-16 R/B 3.0 02:24:51 10° NNW 02:30:19 47° ENE 02:33:31 24° SE
Cosmos 1933 Rocket 4.1 02:34:01 52° E 02:34:01 52° E 02:38:10 10° NNE
Meteor 1-27 4.2 02:30:37 10° NNW 02:36:24 65° W 02:36:49 63° WSW
Cosmos 2322 Rocket 2.5 02:35:40 10° NNW 02:41:15 63° ENE 02:43:42 33° SE
SL-14 R/B 4.4 02:43:23 36° NNW 02:43:23 36° NNW 02:46:03 10° N
Cosmos 1386 Rocket 4.4 02:41:42 58° S 02:43:02 88° W 02:49:12 10° N
AQUA 4.3 02:40:31 10° NNE 02:45:08 49° E 02:45:43 46° ESE
Sich 1 3.7 02:46:25 44° WNW 02:46:25 44° WNW 02:50:11 10° N
Cosmos 1869 4.3 02:47:46 10° N 02:51:33 40° E 02:52:04 38° E
CENTAUR R/B 3.6 02:50:51 25° W 02:53:35 36° NW 02:59:54 10° NNE
Cosmos 1703 3.7 02:54:37 54° NNW 02:54:37 54° NNW 02:57:55 10° N
SEDSat Delta rocket 4.4 02:54:55 42° SSE 02:54:55 42° SSE 03:00:32 10° ESE
Cosmos 1745 Rocket 4.3 02:54:49 44° WSW 02:56:06 51° W 03:02:16 10° N
Cosmos 1271 Rocket 3.0 02:54:52 10° N 02:58:10 64° NNE 02:58:10 64° NNE
CZ-2D R/B 4.2 02:55:28 10° NE 02:59:10 19° E 03:02:41 11° SE
ISS -1.5 02:56:32 10° NW 02:59:32 32° NNE 03:02:31 10° E
Cosmos 968 Rocket 3.9 02:59:41 45° W 03:00:16 47° WNW 03:05:15 10° N
H-2A ROCKET BODY 4.1 02:47:48 10° WSW 03:05:02 - SE 02:52:38 17° WSW
USA 161 4.2 03:03:30 15° NE 03:03:30 15° NE 03:04:29 10° NNE
Nadezhda 1 Rocket 4.1 02:57:20 10° NNW 03:03:17 55° W 03:04:27 47° SW
SL-16 R/B 4.2 02:58:26 10° SE 03:03:50 32° ENE 03:09:16 10° N
Cosmos 1709 Rocket 3.9 03:05:15 43° S 03:07:29 88° E 03:13:46 10° N
ERS-2 2.6 03:05:35 10° N 03:08:48 51° NW 03:08:48 51° NW
Cosmos 1980 Rocket 3.3 03:04:48 10° NW 03:08:46 28° W 03:08:46 28° W
Meteor 1-4 Rocket 2.9 03:05:53 10° NNW 03:09:08 60° NW 03:09:08 60° NW
Cosmos 2360 Rocket 3.5 03:05:16 10° N 03:10:32 39° ENE 03:15:46 10° SE
Cosmos 1862 Rocket 3.4 03:06:11 10° N 03:10:41 81° W 03:11:06 71° SSW
Meteor 2-10 4.0 03:05:49 10° NNW 03:11:04 68° W 03:12:13 52° SSW
NPP 3.6 03:06:18 10° N 03:11:41 75° WNW 03:13:03 51° SW
SL-08 R/B 3.3 03:18:21 54° SSW 03:19:17 68° WSW 03:24:11 10° NNW
USA 229 DEB 4.4 03:19:53 26° S 03:23:19 45° ESE 03:29:53 10° NE
USA 229 4.4 03:19:59 26° S 03:23:26 44° ESE 03:29:59 10° NE
BREEZE-M DEB (TANK) 4.1 03:19:48 10° NW 03:23:33 84° NE 03:38:28 10° SE
Lacrosse 5 rocket 1.4 03:20:39 10° NW 03:25:00 63° SW 03:25:32 57° SSW
CZ-3 Stage 3 3.5 03:13:46 10° WSW 03:28:04 42° SSW 03:31:47 10° ESE
Cosmos 1933 3.8 03:24:17 10° N 03:28:16 57° E 03:29:57 31° SE
Cosmos 2219 4.2 03:25:14 23° SSE 03:28:16 41° ESE 03:33:37 10° NE
Cosmos 2322 4.3 03:25:05 10° NNW 03:30:45 57° ENE 03:36:21 10° SE
ATLAS CENTAUR R/B 3.9 03:27:34 10° N 03:31:30 26° NE 03:35:11 10° ESE
Centaur D-1A AC-32 4.1 03:32:17 24° S 03:33:14 26° SSE 03:42:48 10° ESE
Cosmos 1869 Rocket 3.9 03:33:16 33° SSE 03:35:02 62° E 03:39:25 10° NNE
Cosmos 923 Rocket 4.0 03:31:00 10° NNW 03:36:10 60° WSW 03:38:08 36° SSW
IRS-1C 4.2 03:31:09 10° N 03:36:27 66° WNW 03:38:28 37° SW
Cosmos 2221 Rocket 3.8 03:33:09 10° N 03:37:40 72° E 03:40:17 25° SSE
Spot 4 Rocket 3.9 03:33:26 10° NNE 03:38:36 86° WNW 03:40:49 35° SSW
ATLAS 5 CENTAUR R/B 2.0 03:37:19 40° WSW 03:38:59 66° NW 03:44:11 10° NNE
GPS 2-05 Rocket1 3.5 03:41:58 38° SE 03:41:58 38° SE 03:44:26 10° ESE
Cosmos 1680 Rocket 3.4 03:39:28 10° NNW 03:44:39 66° WSW 03:47:39 25° S
Cosmos 1455 3.2 03:41:23 10° NNW 03:44:25 30° W 03:44:25 30° W
Resurs 1-4 Rocket 2.7 03:40:25 10° NNE 03:45:37 53° E 03:49:25 18° S
Cosmos 2292 Rocket 3.9 03:53:53 31° W 03:53:58 31° WNW 03:57:14 10° NNW
Cosmos 1626 3.7 03:56:33 21° W 03:56:44 21° WNW 03:59:40 10° NNW
Cosmos 1346 4.0 03:56:55 33° WNW 03:56:55 33° WNW 03:59:40 10° N
Cosmos 1833 4.5 03:57:55 28° SW 04:00:54 58° WNW 04:06:35 10° NNE
ARIANE 5 R/B 2.4 03:57:25 10° N 04:02:30 75° WNW 04:05:28 25° SSW
Cosmos 304 Rocket 4.0 03:58:25 10° NNW 04:03:04 47° WSW 04:05:42 24° SSW
COSMOS 2428 3.6 03:57:32 10° NNW 04:03:05 51° ENE 04:08:35 10° SE
CRYOSAT 2 4.3 03:59:47 10° N 04:04:41 83° W 04:08:00 21° S
Cosmos 1703 Rocket 3.7 04:01:49 10° NNW 04:06:02 50° W 04:08:03 27° SSW
USA 215 3.9 04:00:01 10° NE 04:06:14 48° NW 04:11:25 15° WSW
Cosmos 1892 4.4 04:03:00 10° SSE 04:06:26 30° E 04:09:52 10° NNE
GENESIS II 4.2 04:03:44 10° NW 04:07:48 60° WSW 04:11:46 10° SSE
IRS-1D 3.6 04:03:17 10° N 04:08:37 74° WNW 04:12:09 21° SSW
SME Rocket 4.3 04:02:58 10° SSE 04:09:24 58° ENE 04:13:52 10° N
OAO 3 Rocket 3.4 04:08:11 25° WSW 04:10:24 43° SSW 04:14:50 10° ESE
OE (NEXTSAT) 4.4 04:09:55 34° SW 04:11:17 69° SSE 04:14:53 10° ENE
Cosmos 1898 Rocket 3.4 04:09:12 22° SSW 04:12:34 84° WNW 04:17:46 10° NNE
SL-16 R/B 3.3 04:09:45 10° NW 04:14:02 23° W 04:15:18 21° WSW
Cosmos 1937 Rocket 3.6 04:13:22 17° S 04:17:30 77° ESE 04:22:48 10° NNE
BREEZE-M DEB (TANK) 3.5 04:15:15 10° NW 04:18:02 28° NNE 04:20:04 10° E
Nadezhda 3 Rocket 4.4 04:14:54 10° N 04:21:01 64° E 04:27:05 10° SSE
Cosmos 292 Rocket 4.3 04:16:52 10° NNW 04:21:39 62° ENE 04:26:21 10° SSE
UNKNOWN OBJECT B 2.7 04:19:44 10° N 04:23:35 85° W 04:26:32 17° SSW
UNK 3.7 04:19:25 11° S 04:23:44 60° W 04:28:16 10° NNW
Cosmos 2154 Rocket 4.2 04:18:00 10° S 04:24:18 75° E 04:30:39 10° N
Cosmos 2322 Rocket 3.7 04:21:20 10° WNW 04:24:40 16° W 04:25:26 16° WSW
Cosmos 389 Rocket 3.1 04:21:25 10° N 04:25:05 60° E 04:28:43 10° SSE
Cosmos 1610 Rocket 4.5 04:19:41 13° SSW 04:25:21 76° W 04:31:38 10° N
Okean 1-7 3.3 04:21:09 10° NNW 04:25:24 50° W 04:28:49 15° SSW
Cosmos 2237 4.3 04:19:45 10° NNW 04:25:31 82° ENE 04:31:15 10° SSE
Cosmos 2219 Rocket 3.5 04:26:28 10° N 04:31:48 43° ENE 04:37:04 10° SE
AVUM R/B 3.7 04:31:04 17° SSE 04:32:14 31° ESE 04:34:10 10° NE
Cosmos 2150 Rocket 4.4 04:29:36 18° SW 04:33:26 52° WNW 04:38:41 10° N
SL-24 DEB 4.2 04:29:38 10° N 04:34:18 84° W 04:38:55 10° S
Cosmos 2074 Rocket 4.5 04:29:54 16° SW 04:34:27 43° WNW 04:40:23 10° N
Meteor 2-3 Rocket 3.8 04:30:01 12° SSW 04:35:18 70° W 04:41:08 10° N
ISS -2.3 04:33:08 10° WNW 04:35:54 25° SW 04:38:37 10° S
CZ-2D R/B 2.5 04:34:25 10° N 04:39:29 49° WNW 04:44:02 13° SW
SL-16 R/B 3.0 04:41:28 10° SSW 04:47:17 40° W 04:53:08 10° NNW
NOSS 3-1 (C) 3.9 04:41:47 10° SSW 04:47:26 56° ESE 04:53:38 10° NE
Cosmos 1674 Rocket 3.7 04:45:59 10° N 04:50:20 76° E 04:54:39 10° SSE
Okean O Rocket 1.7 04:49:34 10° N 04:53:58 67° WNW 04:58:20 10° SSW
Cosmos 2360 Rocket 3.1 04:49:38 10° NW 04:54:18 27° WSW 04:58:58 10° SSW
Meteor 2-10 Rocket 3.5 04:49:18 10° N 04:54:23 85° W 04:59:37 10° S
Cosmos 2227 Rocket 2.8 04:51:46 10° S 04:57:16 58° ESE 05:02:49 10° NNE
PSLV R/B 4.0 04:56:13 10° N 05:00:07 56° WNW 05:04:04 10° SSW
SWAS 4.4 04:57:30 10° NNW 05:01:50 84° WSW 05:06:08 10° SSE
ADEOS II 3.9 04:58:11 10° NE 05:02:51 31° E 05:07:29 10° SSE
Meteor 1-10 Rocket 4.3 04:58:16 10° NNW 05:04:01 81° W 05:09:50 10° S
GP-B 3.3 04:59:58 10° N 05:04:27 78° E 05:08:52 10° S
CZ-4B R/B 3.3 05:00:15 10° N 05:05:43 74° WNW 05:11:16 10° SSW
ATLAS CENTAUR R/B 2.1 05:06:32 10° NW 05:10:41 34° WSW 05:14:30 10° S
Cosmos 1238 Rocket 4.0 05:04:32 10° N 05:11:15 86° W 05:17:07 10° S
Cosmos 2333 4.3 05:05:50 10° NNW 05:11:20 56° WSW 05:16:53 10° S
Cosmos 2219 4.4 05:07:38 10° WSW 05:12:31 28° WNW 05:17:27 10° N
Cosmos 192 4.5 05:08:06 10° NNW 05:13:01 83° ENE 05:17:55 10° SSE
Cosmos 1782 2.8 05:10:42 10° NNW 05:14:41 67° W 05:18:37 10° S
CZ-4B R/B 3.0 05:10:51 10° N 05:14:55 65° WNW 05:19:10 10° SSW
